"Pseudo-MPEC" for P222FIh

Created 2024 Nov 30 22:31:14 UT using Find_Orb

Click here for an explanation of pseudo-MPECs

 
 Astrometry: 
     P222FIh* C2024 11 29.26824002 24 58.535+14 41 01.64   ~BT9V 21.12wXNEOCPF52
     P222FIh  C2024 11 29.28048702 25 02.414+14 39 45.98   ~BT9V 20.63wXNEOCPF52
     P222FIh  C2024 11 29.29263102 25 06.246+14 38 30.63   ~BT9V 21.00wXNEOCPF52
     P222FIh  C2024 11 29.30488502 25 10.093+14 37 14.41   ~BT9V 20.72wXNEOCPF52
     P222FIh  C2024 11 29.41258802 25 44.082+14 25 52.14   ~BTL2 20.78GVNEOCPF52
     P222FIh  C2024 11 29.41321902 25 44.287+14 25 47.93   ~BTL2 21.04GVNEOCPF52
     P222FIh pC2024 11 29.91623602 28 56.24 +13 30 31.4    ~BTMV 20.2 GVNEOCPL01
     P222FIh KB2024 11 29.91681 02 28 56.98 +13 30 27.4    ~BUD2       VNEOCP204
     P222FIh pC2024 11 29.91792302 28 56.75 +13 30 19.8    ~BTMV 20.0 GVNEOCPL01
     P222FIh KC2024 11 29.91982002 28 57.40 +13 30 07.1    ~BTMV 20.0 GVNEOCPL01
     P222FIh KC2024 11 29.93455902 29 02.52 +13 28 28.2    ~BTNH 20.8 GVNEOCPL01
     P222FIh KB2024 11 29.93763 02 29 04.21 +13 28 07.9    ~BUD2 20.8 GVNEOCP204
     P222FIh MC2024 11 29.93961102 29 04.30 +13 27 55.2    ~BTNH 20.6 GVNEOCPL01
     P222FIh KC2024 11 30.03723502 29 49.87 +13 17 11.5    ~BU2H 21.4 GVNEOCPH21
     P222FIh KC2024 11 30.04282602 29 51.90 +13 16 34.0    ~BU2H 20.7 GVNEOCPH21
     P222FIh KC2024 11 30.04841702 29 53.90 +13 15 57.4    ~BU2H 20.9 GVNEOCPH21

Station data:
(204) Schiaparelli Observatory  (N45.868292 E8.769720)  Italy.  Observer L.
   Buzzi. 0.60-m f/4.64 Newtonian + CCD0.84-m f/3.5 reflector + CCD.
(F52) Pan-STARRS 2, Haleakala  (N20.707382 W156.255910)  US/Hawaii.
   Observers J. Bulger, T. Dukes, T. Lowe, A. Schultz, M. Willman. Measurers
   K. Chambers, S. Chastel, T. de Boer, L. Denneau, J. Fairlamb, H.
   Flewelling, M. Huber, C.-C. Lin, E. Magnier, Y. Ramanjooloo, R. Wainscoat,
   R. Weryk. 1.8-m Ritchey-Chrétien + CCD.
(H21) Astronomical Research Observatory, Westfield  (N39.483054 W87.968270)
   US/Illinois.  Observer R. Holmes. Measurers S. Foglia, L. Buzzi, T.
   Linder, R. Holmes. 0.76-m f/3.0 astrograph + CCD0.81-m f/4.0 astrograph +
   CCD0.61-m f/4.5 astrograph + CCD0.40-m f/5.32 astrograph + CCD.
(L01) Višnjan Observatory, Tičan  (N45.290897 E13.749300)  Croatia.
   Observers K. Korlević, D. Pujagic, V. Dobos. Measurers D. Pujagic, K.
   Korlević. 1.0-m f/2.9 reflector + CCD.

Orbital elements:  P222FIh
   Perihelion 2024 Dec 23.49780 +/- 0.0703 TT = 11:56:50 (JD 2460667.99780)
Epoch 2024 Nov 30.0 TT = JDT 2460644.5   Earth MOID: 0.0441      AutoNEOCP
M 349.84104474 +/- 0.049            (J2000 ecliptic)
n   0.43233635 +/- 0.00325          Peri.  207.24124 +/- 0.11
a   1.73216083 +/- 0.00867          Node   245.59321 +/- 0.0042
e   0.4167914 +/- 0.0031            Incl.    7.12929 +/- 0.014
P   2.280/832.669d         H 25.54  G  0.15   U  8.9
q 1.01021099 +/- 0.000361    Q 2.45411066 +/- 0.0177
From 16 observations 2024 Nov. 29-30 (18.7 hr); mean residual 0".37
Residuals in arcseconds: 
241129 F52  .02+  .07-    241129 L01  .31+  .00     241129 L01  .35-  .14+    
241129 F52  .04-  .01+    241129 204  .19-  .56+    241130 H21  .07-  .37+    
241129 F52  .08-  .02+    241129 L01  .76-  .34-    241130 H21  .53+  .22-    
241129 F52  .23-  .10+    241129 L01  .84-  .38-    241130 H21  .77+  .12+    
241129 F52  .21+  .04+    241129 L01  .68-  .71-    
241129 F52  .26+  .11-    241129 204  .18+  .03+    

Ephemerides (geocentric):
Date (UTC) HH   RA             Dec           delta  r     elong  mag " sig PA
---- --------  ------------   ------------  ------ ------ -----  --- --------
2024 11 30 23  02 35 57.569   +11 31 18.87  .06114 1.0401 151.2 20.8 4.36 144
2024 12 01 00  02 36 15.095   +11 26 16.37  .06104 1.0400 151.2 20.8 4.66 144
2024 12 01 01  02 36 32.681   +11 21 12.80  .06093 1.0399 151.1 20.8 4.97 144
2024 12 01 02  02 36 50.326   +11 16 08.15  .06082 1.0398 151.1 20.8 5.30 144
2024 12 01 03  02 37 08.031   +11 11 02.43  .06072 1.0397 151.1 20.8 5.63 144
2024 12 01 04  02 37 25.795   +11 05 55.64  .06061 1.0396 151.1 20.8 5.98 144
2024 12 01 05  02 37 43.618   +11 00 47.76  .06051 1.0395 151.1 20.8 6.33 144
2024 12 01 06  02 38 01.502   +10 55 38.80  .06040 1.0394 151.1 20.7 6.70 144
2024 12 01 07  02 38 19.446   +10 50 28.75  .06030 1.0392 151.1 20.7 7.08 143
2024 12 01 08  02 38 37.450   +10 45 17.62  .06019 1.0391 151.1 20.7 7.47 143
2024 12 01 09  02 38 55.514   +10 40 05.39  .06009 1.0390 151.0 20.7 7.88 143
2024 12 01 10  02 39 13.639   +10 34 52.08  .05998 1.0389 151.0 20.7 8.29 143
2024 12 01 11  02 39 31.824   +10 29 37.67  .05988 1.0388 151.0 20.7 8.72 143
2024 12 01 12  02 39 50.071   +10 24 22.16  .05977 1.0387 151.0 20.7 9.16 143
2024 12 01 13  02 40 08.378   +10 19 05.55  .05967 1.0386 151.0 20.7 9.61 143
2024 12 01 14  02 40 26.747   +10 13 47.85  .05957 1.0385 151.0 20.7 10.1 143
2024 12 01 15  02 40 45.177   +10 08 29.04  .05946 1.0384 151.0 20.7 10.5 143
2024 12 01 16  02 41 03.668   +10 03 09.12  .05936 1.0383 150.9 20.7 11.0 143
2024 12 01 17  02 41 22.221   +09 57 48.10  .05926 1.0382 150.9 20.7 11.5 143
2024 12 01 18  02 41 40.836   +09 52 25.96  .05916 1.0381 150.9 20.7 12.1 143
2024 12 01 19  02 41 59.513   +09 47 02.72  .05906 1.0380 150.9 20.7 12.6 143
2024 12 01 20  02 42 18.252   +09 41 38.36  .05896 1.0379 150.9 20.7 13.1 143
2024 12 01 21  02 42 37.053   +09 36 12.89  .05885 1.0378 150.9 20.7 13.7 143
2024 12 01 22  02 42 55.917   +09 30 46.30  .05875 1.0377 150.8 20.7 14.2 143
2024 12 01 23  02 43 14.843   +09 25 18.59  .05865 1.0376 150.8 20.7 14.8 142
2024 12 02 00  02 43 33.832   +09 19 49.75  .05855 1.0375 150.8 20.7 15.4 142
2024 12 02 01  02 43 52.885   +09 14 19.80  .05845 1.0374 150.8 20.7 16.0 142
2024 12 02 02  02 44 12.000   +09 08 48.72  .05835 1.0373 150.8 20.7 16.6 142
2024 12 02 03  02 44 31.178   +09 03 16.52  .05825 1.0372 150.8 20.7 17.3 142
2024 12 02 04  02 44 50.420   +08 57 43.18  .05816 1.0371 150.7 20.7 17.9 142
2024 12 02 05  02 45 09.725   +08 52 08.72  .05806 1.0370 150.7 20.7 18.6 142
2024 12 02 06  02 45 29.094   +08 46 33.12  .05796 1.0369 150.7 20.7 19.2 142
2024 12 02 07  02 45 48.528   +08 40 56.39  .05786 1.0367 150.7 20.7 19.9 142
2024 12 02 08  02 46 08.025   +08 35 18.53  .05776 1.0366 150.7 20.7 20.6 142
2024 12 02 09  02 46 27.586   +08 29 39.53  .05767 1.0365 150.7 20.7 21.4 142
2024 12 02 10  02 46 47.211   +08 23 59.39  .05757 1.0364 150.6 20.7 22.1 142
2024 12 02 11  02 47 06.901   +08 18 18.12  .05747 1.0363 150.6 20.6 22.8 142
2024 12 02 12  02 47 26.656   +08 12 35.70  .05737 1.0362 150.6 20.6 23.6 142
2024 12 02 13  02 47 46.476   +08 06 52.14  .05728 1.0361 150.6 20.6 24.4 142
2024 12 02 14  02 48 06.360   +08 01 07.44  .05718 1.0360 150.6 20.6 25.2 142
2024 12 02 15  02 48 26.310   +07 55 21.60  .05709 1.0359 150.5 20.6 26.0 142
2024 12 02 16  02 48 46.325   +07 49 34.61  .05699 1.0358 150.5 20.6 26.8 142
2024 12 02 17  02 49 06.405   +07 43 46.47  .05690 1.0357 150.5 20.6 27.6 142
2024 12 02 18  02 49 26.551   +07 37 57.19  .05680 1.0356 150.5 20.6 28.5 142
2024 12 02 19  02 49 46.763   +07 32 06.76  .05671 1.0355 150.4 20.6 29.3 142
2024 12 02 20  02 50 07.040   +07 26 15.17  .05661 1.0354 150.4 20.6 30.2 142
2024 12 02 21  02 50 27.384   +07 20 22.44  .05652 1.0353 150.4 20.6 31.1 142
2024 12 02 22  02 50 47.794   +07 14 28.56  .05643 1.0352 150.4 20.6 32.0 142